Weather in Kumskoy

Russia / Republic of Kalmykia     44°58′50″N   46°03′37″E
temp.,
°C
wind,
m/s
gust,
m/s
humid.,
%
clouds,
%
prec.,
mm/h
press.,
hPa
HPBL,
m
20 april, tue
tue2000:00+15se3573100 0.0 1015129
03:00+14ese3661100 0.0 1014138
06:00+14se3863100 0.0 1013227
09:00+19ese81344100 0.0 1012708
12:00+21ese131741100 0.0 1009947
15:00+20se121744100 0.0 1008825
18:00+17ese91858100 0.0 1007624
21:00+15ese51072100 0.1 1009422
21 april, wed
wed2100:00+14nne2480100 0.4 1011117
03:00+13wnw4689100 1.8 1014224
06:00+14nw8138493 0.3 1014596
09:00+15nw91164100 0.3 1017647
12:00+14nnw8965100 0.0 1017677
15:00+16nnw8952100 0.0 1017920
18:00+15nnw565726 0.0 1019883
21:00+13nnw48675 0.0 1020221
22 april, thu
thu2200:00+12nw587598 0.0 1020223
03:00+12nnw5872100 0.0 1020247
06:00+11nnw4878100 0.3 1021328
09:00+12nw5781100 0.3 1023383
12:00+12nnw5887100 0.9 1023518
15:00+17nnw555013 0.9 10221016
18:00+16nw3460100 0.0 1022562
21:00+14w3568100 0.0 1022141
23 april, fri
fri2300:00+13wnw3571100 0.1 1022153
03:00+12wsw4479100 1.0 1022116
06:00+12wsw4584100 0.7 1023222
09:00+14w4570100 0.8 1023438
12:00+17wnw5553100 0.1 10221027
15:00+19nw3540100 0.1 10212162
18:00+18w565293 0.0 1022740
21:00+15wsw586762 0.0 1022229
24 april, sat
sat2400:00+13w45704 0.0 102289
03:00+12w33713 0.0 102136
06:00+12w22712 0.0 102223
09:00+17se22485 0.0 1021551
12:00+21se333428 0.0 10201671
15:00+22se653083 0.0 10181794
18:00+18ese884498 0.0 1019728
21:00+15se61160100 0.0 1019444